Cape Girardeau, MO

4:01 PM CDT on March 23, 2017 (GMT -0500)
Cape Girardeau Regional

Weather History for KCGI - September, 2013

Change the Weather History Date:

Tuesday, September 3, 2013

  Actual Average Record
Temperature  
Mean Temperature 72 °F 74 °F  
Max Temperature 85 °F 86 °F 98 °F (2011)
Min Temperature 58 °F 62 °F 49 °F (1965)
Degree Days  
Heating Degree Days 0 0  
Month to date heating degree days 0 0  
Since 1 July heating degree days 1 1  
Cooling Degree Days 7 9  
Month to date cooling degree days 29 27  
Year to date cooling degree days 1210 1287  
Growing Degree Days 22 (Base 50)    
Moisture  
Dew Point 59 °F    
Average Humidity 65    
Maximum Humidity 97    
Minimum Humidity 32    
Precipitation  
Precipitation 0.00 in 0.11 in 1.68 in (1993)
Month to date precipitation T 0.33  
Year to date precipitation 28.23 31.38  
Sea Level Pressure  
Sea Level Pressure 30.01 in    
Wind  
Wind Speed 4 mph (NW)    
Max Wind Speed 12 mph    
Max Gust Speed 20 mph    
Visibility 10 miles    
Events      
T = Trace of Precipitation, MM = Missing Value Source: NWS Daily Summary

Daily Weather History Graph

Daily Weather History Graph

Search for Another Location

Airport or City:

Trip Planner

Search our weather history database for the weather conditions in past years. The results will help you decide how hot, cold, wet, or windy it might be!

Date:

Astronomy

Sep. 03, 2013 Rise Set
Actual Time 6:30 AM CDT 7:23 PM CDT
Civil Twilight 6:04 AM CDT 7:50 PM CDT
Nautical Twilight 5:32 AM CDT 8:21 PM CDT
Astronomical Twilight 5:00 AM CDT 8:53 PM CDT
Moon 4:45 AM CDT (9/3) 6:10 PM CDT (9/3)
Length of Visible Light 13h 45m
Length of Day
12h 52m
Waning Crescent, 3% of the Moon is Illuminated
Sep 3
Waning Crescent
Sep 5
New
Sep 12
First Quarter
Sep 19
Full
Sep 26
Last Quarter

Hourly Weather History & Observations

Time (CDT) Temp. Heat Index Dew Point Humidity Pressure Visibility Wind Dir Wind Speed Gust Speed Precip Events Conditions
12:53 AM 63.0 °F - 61.0 °F 93% 29.94 in 10.0 mi Calm Calm - N/A   Clear
1:53 AM 63.0 °F - 61.0 °F 93% 29.95 in 10.0 mi West 4.6 mph - N/A   Clear
2:53 AM 62.1 °F - 60.1 °F 93% 29.96 in 10.0 mi Calm Calm - N/A   Clear
3:53 AM 61.0 °F - 59.0 °F 93% 29.98 in 10.0 mi West 4.6 mph - N/A   Clear
4:53 AM 61.0 °F - 59.0 °F 93% 29.98 in 9.0 mi West 4.6 mph - N/A   Clear
5:53 AM 59.0 °F - 57.9 °F 96% 29.99 in 9.0 mi West 3.5 mph - N/A   Clear
6:53 AM 59.0 °F - 57.9 °F 96% 30.01 in 10.0 mi West 4.6 mph - N/A   Clear
7:53 AM 66.0 °F - 61.0 °F 84% 30.03 in 10.0 mi NW 4.6 mph - N/A   Clear
8:53 AM 71.1 °F - 62.1 °F 73% 30.04 in 10.0 mi North 4.6 mph - N/A   Clear
9:53 AM 75.0 °F - 63.0 °F 66% 30.04 in 10.0 mi NNW 3.5 mph - N/A   Clear
10:53 AM 80.1 °F 81.2 °F 62.1 °F 54% 30.05 in 10.0 mi NNW 9.2 mph - N/A   Clear
11:53 AM 82.0 °F 81.6 °F 55.9 °F 41% 30.04 in 10.0 mi North 6.9 mph - N/A   Clear
12:53 PM 82.9 °F 82.0 °F 55.0 °F 38% 30.03 in 10.0 mi North 10.4 mph - N/A   Clear
1:53 PM 84.0 °F - 52.0 °F 33% 30.02 in 10.0 mi NW 9.2 mph - N/A   Clear
2:53 PM 84.0 °F - 52.0 °F 33% 30.01 in 10.0 mi North 6.9 mph - N/A   Clear
3:53 PM 84.0 °F - 51.1 °F 32% 29.99 in 10.0 mi North 9.2 mph - N/A   Clear
4:53 PM 84.0 °F 82.6 °F 54.0 °F 35% 29.99 in 10.0 mi North 6.9 mph - N/A   Clear
5:53 PM 82.9 °F 82.6 °F 57.9 °F 42% 29.99 in 10.0 mi NE 5.8 mph - N/A   Clear
6:53 PM 79.0 °F - 61.0 °F 54% 29.99 in 10.0 mi Calm Calm - N/A   Clear
7:53 PM 70.0 °F - 62.1 °F 76% 29.99 in 10.0 mi Calm Calm - N/A   Clear
8:53 PM 64.9 °F - 61.0 °F 87% 30.01 in 10.0 mi Calm Calm - N/A   Clear
9:53 PM 64.0 °F - 61.0 °F 90% 30.04 in 10.0 mi Calm Calm - N/A   Clear
10:53 PM 62.1 °F - 59.0 °F 90% 30.05 in 10.0 mi ESE 4.6 mph - N/A   Clear
11:53 PM 64.9 °F - 61.0 °F 87% 30.06 in 10.0 mi Calm Calm - N/A   Clear